DateTimeUTC,F1_A11,F1_S11,BsB_S11,BsG_S11,BsR_S11,BbsB_S11,BbsG_S11,BbsR_S11,BaB_A11,BaG_A11,BaR_A11,Tu_S11,T_S11,Uu_S11,U_S11,P_S11,T1_A11
2021-09-01T03:00:00Z,00040200,20000000,,,,,,,-000.10,0000.18,-000.03,18.5,25.3,03.2,02.1,0672.6,31.0
2021-09-01T03:01:00Z,00040200,20000000,,,,,,,0000.12,0000.20,0000.14,18.5,25.3,03.2,02.1,0672.6,31.0
2021-09-01T03:02:00Z,00040200,20000000,,,,,,,-000.03,-000.10,-000.25,18.5,25.4,03.2,02.1,0672.6,31.0
2021-09-01T03:03:00Z,00040200,60000000,,,,,,,0000.89,0000.86,0000.58,18.6,25.4,03.2,02.1,0672.6,31.0
2021-09-01T03:04:00Z,00040200,40000000,0004.76,0003.14,0002.40,0000.80,0000.53,0000.28,0000.72,0001.00,0000.40,18.8,25.3,03.1,02.1,0673.6,31.0
2021-09-01T03:05:00Z,00040200,00000000,0004.41,0003.54,0002.24,0001.02,0000.39,0000.16,0000.96,0000.69,0000.69,18.9,25.2,03.2,02.2,0673.7,31.0
2021-09-01T03:06:00Z,00040200,00000000,0005.20,0003.14,0002.19,0001.10,0000.58,0000.23,0000.52,0000.65,0001.03,18.8,25.2,03.2,02.2,0673.7,31.0
2021-09-01T03:07:00Z,00040200,00000000,0004.33,0003.34,0002.70,0000.40,0000.45,0000.58,0001.10,0000.77,0000.82,18.8,25.2,03.2,02.2,0673.7,31.0
2021-09-01T03:08:00Z,00040200,00000000,0004.32,0003.19,0002.34,0000.77,0000.61,0000.26,0000.81,0000.90,0000.45,18.8,25.1,03.3,02.2,0673.7,31.0
2021-09-01T03:09:00Z,00040200,00000000,0004.90,0003.54,0002.57,0000.57,0000.88,-000.14,0000.83,0000.54,0000.73,18.8,25.1,03.3,02.2,0673.7,31.0
2021-09-01T03:10:00Z,00040200,00000000,0004.08,0003.52,0002.09,0000.56,0000.35,0000.21,0000.77,0001.10,0000.54,18.7,25.1,03.3,02.3,0673.7,31.0
2021-09-01T03:11:00Z,00040200,00000000,0006.18,0003.79,0002.46,0000.94,0000.36,0000.31,0000.99,0000.36,0000.41,18.7,25.1,03.4,02.3,0673.8,31.0
2021-09-01T03:12:00Z,00040200,00000000,0005.18,0003.19,0002.51,0001.06,0000.55,0000.38,0000.98,0000.85,0000.56,18.7,25.0,03.3,02.2,0673.8,31.0
2021-09-01T03:13:00Z,00040200,00000000,0004.15,0002.81,0002.18,0001.17,0000.29,0000.01,0000.28,0000.41,0000.39,18.7,25.0,03.3,02.3,0673.8,31.0
2021-09-01T03:14:00Z,00040200,00000000,0004.33,0003.20,0002.21,0000.31,0000.48,0000.37,0000.97,0000.92,0001.02,18.7,25.0,03.2,02.2,0673.8,30.9
2021-09-01T03:15:00Z,00040200,00000000,0004.52,0003.02,0002.13,0000.74,0000.30,0000.19,0001.11,0000.99,0000.56,18.7,25.1,03.2,02.2,0673.8,31.0
2021-09-01T03:16:00Z,00040200,00000000,0004.49,0003.24,0001.98,0000.32,0000.37,0000.06,0000.56,0000.41,-000.19,18.8,25.1,03.3,02.2,0673.8,31.0
2021-09-01T03:17:00Z,00040200,00000000,0004.32,0003.12,0002.05,0000.62,0000.55,-000.05,0000.47,0000.94,0000.83,18.9,25.2,03.3,02.3,0673.8,31.0
2021-09-01T03:18:00Z,00040200,00000000,0005.33,0003.19,0002.32,0000.19,0000.63,0000.37,0001.12,0000.89,0001.03,18.9,25.2,03.2,02.2,0673.8,31.0
2021-09-01T03:19:00Z,00040200,00000000,0004.25,0003.58,0002.47,0000.16,0000.56,0000.01,0001.17,0000.98,0000.60,18.9,25.2,03.3,02.3,0673.8,31.0
2021-09-01T03:20:00Z,00040200,00000000,0005.30,0003.24,0002.48,0000.49,0000.44,0000.45,0000.53,0000.38,0000.43,18.9,25.2,03.4,02.3,0673.8,31.0
2021-09-01T03:21:00Z,00040200,00000000,0004.33,0003.30,0002.44,0000.88,0000.56,0000.15,0001.31,0000.95,0000.70,18.9,25.1,03.2,02.2,0673.8,31.0
2021-09-01T03:22:00Z,00040200,00000000,0004.88,0003.78,0002.72,0000.61,0000.48,0000.32,0000.72,0001.23,0001.32,18.8,25.1,03.3,02.3,0673.8,31.0
2021-09-01T03:23:00Z,00040200,00000000,0005.34,0003.58,0003.03,0000.81,0000.58,0000.35,0001.48,0001.10,0000.67,18.8,25.1,03.4,02.3,0673.8,31.0
2021-09-01T03:24:00Z,00040200,00000000,0005.46,0003.51,0002.15,0001.04,0000.39,0000.05,0000.04,0000.05,0000.16,18.8,25.1,03.6,02.4,0673.8,31.0
2021-09-01T03:25:00Z,00040200,00000000,0005.11,0003.47,0002.58,0000.84,0000.50,0000.28,0000.50,0000.70,0000.32,18.7,25.1,03.3,02.2,0673.8,31.0
2021-09-01T03:26:00Z,00040200,00000000,0004.89,0003.34,0002.57,0000.62,0000.53,0000.15,0001.13,0000.56,0000.55,18.7,25.0,03.3,02.2,0673.8,31.0
2021-09-01T03:27:00Z,00040200,00000000,0004.35,0003.60,0002.67,0001.37,0000.58,0000.55,0000.68,0000.81,0000.93,18.7,25.0,03.2,02.2,0673.8,31.0
2021-09-01T03:28:00Z,00040200,00000000,0005.50,0004.15,0002.69,0000.86,0000.54,0000.46,0000.98,0000.45,0000.41,18.7,25.0,03.2,02.2,0673.8,30.9
2021-09-01T03:29:00Z,00040200,00000000,0005.37,0003.37,0002.71,0001.04,0000.23,0000.24,0000.83,0001.12,0000.92,18.7,25.0,03.2,02.2,0673.8,31.0
2021-09-01T03:30:00Z,00040200,00000000,0005.75,0003.99,0002.67,0000.35,0000.54,0000.52,0000.87,0001.12,0000.47,18.7,25.0,03.2,02.2,0673.8,31.0
2021-09-01T03:31:00Z,00040200,00000000,0005.37,0004.05,0002.77,0001.02,0000.55,0000.37,0000.84,0000.86,0000.70,18.8,25.1,03.2,02.2,0673.8,31.0
2021-09-01T03:32:00Z,00040200,00000000,0005.64,0003.94,0002.54,0000.93,0000.32,-000.06,0000.92,0000.46,0000.74,18.9,25.1,03.1,02.1,0673.8,31.0
2021-09-01T03:33:00Z,00040200,00000000,0005.55,0004.14,0002.80,0000.11,0000.44,0000.33,0000.84,0001.05,0000.36,18.9,25.1,03.2,02.2,0673.8,31.0
2021-09-01T03:34:00Z,00040200,00000000,0005.47,0004.34,0003.15,0001.51,0000.19,0000.41,0001.08,0001.01,0000.72,18.9,25.1,03.2,02.2,0673.8,31.0
2021-09-01T03:35:00Z,00040200,00000000,0005.90,0004.04,0002.74,0000.27,0000.45,-000.07,0001.10,0001.07,0001.02,18.8,25.1,03.1,02.1,0673.8,31.0
2021-09-01T03:36:00Z,00040200,00000000,0006.45,0004.10,0003.12,0001.14,0000.48,0000.42,0001.27,0000.89,0000.78,18.8,25.1,03.1,02.1,0673.8,31.0
2021-09-01T03:37:00Z,00040200,00000000,0006.38,0004.31,0003.48,0000.33,0000.90,0000.12,0000.98,0001.33,0000.78,18.8,25.1,03.1,02.1,0673.8,31.0
2021-09-01T03:38:00Z,00040200,00000000,0006.12,0004.65,0003.22,0000.67,0000.66,0000.78,0001.50,0001.38,0000.89,18.8,25.0,03.2,02.1,0673.8,30.9
2021-09-01T03:39:00Z,00040200,00000000,0006.03,0004.37,0003.09,0000.75,0000.82,0000.48,0000.66,0000.16,0000.63,18.7,25.0,03.2,02.2,0673.8,31.0
2021-09-01T03:40:00Z,00040200,00000000,0007.23,0004.34,0002.82,0001.07,0000.82,0000.27,0000.84,0000.85,0001.02,18.7,25.0,03.3,02.2,0673.8,30.9
2021-09-01T03:41:00Z,00040200,00000000,0005.48,0004.57,0002.69,0000.40,0000.76,0000.20,0001.24,0000.82,0000.35,18.7,25.0,03.1,02.1,0673.8,30.9
2021-09-01T03:42:00Z,00040200,00000000,0006.49,0004.92,0003.29,0001.10,0000.70,0000.66,0001.10,0001.42,0000.60,18.6,25.0,03.2,02.2,0673.8,30.9
2021-09-01T03:43:00Z,00040200,00000000,0006.15,0004.95,0003.64,0001.29,0000.55,0000.54,0001.28,0000.98,0001.47,18.6,24.9,03.3,02.2,0673.8,30.9
2021-09-01T03:44:00Z,00040200,00000000,0007.78,0006.23,0004.38,0000.91,0000.80,0000.51,0002.05,0001.73,0001.28,18.6,24.9,03.3,02.3,0673.8,30.9
2021-09-01T03:45:00Z,00040200,00000000,0008.17,0006.03,0004.54,0000.77,0000.75,0000.63,0002.30,0002.52,0001.66,18.7,25.0,03.7,02.5,0673.8,31.0
2021-09-01T03:46:00Z,00040200,00000000,0007.86,0005.56,0003.77,0001.89,0000.83,0000.44,0000.85,0000.76,0001.11,18.8,25.0,03.6,02.5,0673.9,31.0
2021-09-01T03:47:00Z,00040200,00000000,0006.19,0005.25,0004.06,0001.33,0000.96,0000.49,0000.72,0000.64,0000.73,18.9,25.1,03.5,02.4,0673.9,31.0
2021-09-01T03:48:00Z,00040200,00000000,0006.68,0005.40,0003.87,0001.30,0000.60,0000.64,0001.02,0000.91,0000.34,18.9,25.1,03.5,02.4,0673.9,31.0
2021-09-01T03:49:00Z,00040200,00000000,0007.17,0004.91,0003.43,0000.47,0000.49,0000.43,0001.42,0001.46,0001.22,18.9,25.1,03.4,02.3,0673.9,31.0
2021-09-01T03:50:00Z,00040200,00000000,0006.34,0004.70,0003.95,0000.92,0000.82,0000.44,0001.15,0000.75,0000.68,18.9,25.1,03.3,02.3,0673.9,31.0
2021-09-01T03:51:00Z,00040200,00000000,0006.63,0004.86,0003.90,0000.24,0000.60,0000.60,0000.78,0001.19,0000.61,18.8,25.1,03.4,02.3,0673.9,31.0
2021-09-01T03:52:00Z,00040200,00000000,0007.04,0005.05,0003.74,0000.68,0000.81,0000.55,0000.97,0000.55,0000.75,18.8,25.1,03.3,02.3,0673.9,31.0
2021-09-01T03:53:00Z,00040200,00000000,0006.65,0004.94,0003.83,0000.83,0000.65,0000.17,0001.47,0001.56,0001.23,18.7,25.0,03.4,02.3,0673.9,31.0
2021-09-01T03:54:00Z,00040200,00000000,0005.97,0005.55,0004.00,0000.68,0000.65,0000.24,0001.12,0001.06,0000.43,18.7,25.0,03.4,02.3,0674.0,31.0
2021-09-01T03:55:00Z,00040200,00000000,0007.52,0005.73,0004.09,0000.65,0000.44,0000.26,0001.42,0000.77,0001.11,18.7,25.0,03.4,02.3,0673.9,31.0
2021-09-01T03:56:00Z,00040200,00000000,0008.58,0005.87,0004.37,0000.88,0000.51,0000.55,0001.85,0001.96,0001.35,18.7,25.0,03.5,02.4,0673.9,31.0
2021-09-01T03:57:00Z,00040200,40000000,,,,,,,-000.01,0000.47,0000.39,18.7,25.0,03.5,02.4,0673.9,31.0
2021-09-01T03:58:00Z,00040200,60000000,,,,,,,0000.12,-000.29,0000.13,18.3,25.1,03.5,02.3,0673.0,30.9
2021-09-01T03:59:00Z,00040200,20000000,,,,,,,-000.13,-000.24,-000.28,18.3,25.2,03.4,02.2,0673.0,31.0
